Tracking 32571 objects as of 17-Dec-2025
HD Live streaming from Space Station
objects crossing your sky now

STARLINK-32098

Track STARLINK-32098 now!
10-day predictions
STARLINK-32098 is classified as:


NORAD ID: 59704
Int'l Code: 2024-086Y
Perigee: 489.4 km
Apogee: 491.0 km
Inclination: 43.0 °
Period: 94.3 minutes
Semi major axis: 6861 km
RCS: Unknown
Launch date: May 8, 2024
Source: United States (US)
Launch site: AIR FORCE EASTERN TEST RANGE (AFETR)
Your satellite tracking list
Your tracking list is empty




NASA's NSSDC Master Catalog

Two Line Element Set (TLE):
1 59704U 24086Y   25350.80499905  .00002272  00000-0  92050-4 0  9997
2 59704  43.0016 168.1872 0001168 270.5981  89.4737 15.27581199 91435
Source of the keplerian elements: AFSPC